Regional Weather Roundup
Issued by NWS

Home | Current Version | Previous Version | Text Only | Print | Product List | Glossary Off
Versions: 1 2 3 4 5 6 7 8 9 10 11 12 13 14 15 16 17 18 19 20 21 22 23 24 25 26 27 28 29 30 31 32 33 34 35 36 37 38 39 40 41 42 43 44 45 46 47 48 49 50

000
ASUS45 KPSR 271410
RWRAZ

ARIZONA HOURLY REGIONAL WEATHER ROUNDUP
NATIONAL WEATHER SERVICE PHOENIX AZ
700 AM MST FRI MAY 27 2016

NOTE: FAIR INDICATES FEW OR NO CLOUDS BELOW 12,000 FEET WITH NO
SIGNIFICANT WEATHER AND/OR OBSTRUCTIONS TO VISIBILITY.

AZZ001>003-036-271500-
NORTHWEST ARIZONA

CITY           SKY/WX    TMP DP  RH WIND       PRES   REMARKS
BULLHEAD CITY  SUNNY     70  36  28 CALM      29.86R
KINGMAN        SUNNY     65  30  27 CALM      29.95R
$$

AZZ004>008-015-016-018-271500-
NORTH CENTRAL ARIZONA

CITY           SKY/WX    TMP DP  RH WIND       PRES   REMARKS
GRAND CANYON   SUNNY     44  30  57 CALM      30.09R
WILLIAMS       SUNNY     46  28  49 SE5       30.16R
PRESCOTT       SUNNY     56  29  35 N6        30.03R
FLAGSTAFF      SUNNY     47  30  51 CALM      30.09R
PAYSON         SUNNY     54  28  37 CALM      30.05S
PAGE           SUNNY     59  34  39 SE6       29.96R
$$

AZZ009>014-017-271500-
NORTHEAST ARIZONA

CITY           SKY/WX    TMP DP  RH WIND       PRES   REMARKS
WINSLOW        SUNNY     54  29  38 CALM      30.02R
SAINT JOHNS    SUNNY     53  28  38 SW8       30.02S
WINDOW ROCK    SUNNY     47  30  51 CALM      30.03S
SHOW LOW       SUNNY     50  27  40 S7        30.08R
$$

AZZ023-271500-
GREATER PHOENIX AREA

CITY           SKY/WX    TMP DP  RH WIND       PRES   REMARKS
PHOENIX        SUNNY     69  34  27 E9        29.87R
BUCKEYE        SUNNY     70  37  30 CALM      29.89R
GLENDALE       SUNNY     70  36  28 CALM      29.88R
LUKE AFB       SUNNY     68  37  32 N5        29.86R
DEER VALLEY    SUNNY     68  32  26 E5        29.88R
SCOTTSDALE     SUNNY     69  37  30 CALM      29.90R
MESA-GATEWAY   SUNNY     66  30  26 E7        29.90R
CHANDLER       SUNNY     66  36  32 VRB5      29.89R
$$

AZZ027-028-271500-
SOUTHWEST MARICOPA COUNTY AND PINAL COUNTY

CITY           SKY/WX    TMP DP  RH WIND       PRES   REMARKS
CASA GRANDE    SUNNY     64  27  24 CALM      29.90R
GILA BEND      FAIR      67  34  28 E2        29.86R
$$

AZZ503-504-507>509-271500-
SOUTHEAST ARIZONA

CITY           SKY/WX    TMP DP  RH WIND       PRES   REMARKS
TUCSON         SUNNY     60  26  27 SE6       29.96R
DAVIS-MONTHAN  SUNNY     62  27  26 S6        29.94R
RYAN FIELD     SUNNY     59  27  29 CALM      29.96R
NOGALES        SUNNY     55  26  32 CALM      29.99R
SIERRA VISTA   SUNNY     60  26  27 N2        30.03R
DOUGLAS        SUNNY     56  22  26 N3        30.01R
SAFFORD        SUNNY     60  24  25 SE5       29.95R
$$

AZZ020-021-025-026-031-271500-
SOUTHWEST ARIZONA

CITY           SKY/WX    TMP DP  RH WIND       PRES   REMARKS
YUMA           SUNNY     71  49  45 CALM      29.84R
$$

CAZ031-033-041-043-047-048-061-271500-
SOUTHERN CALIFORNIA

CITY           SKY/WX    TMP DP  RH WIND       PRES   REMARKS
DOWNTOWN L.A.  CLOUDY    61  54  77 E5        29.94F
L.A. AIRPORT   PTSUNNY   60  53  77 E8        29.95S
SAN DIEGO      CLOUDY    63  56  78 CALM      29.96S
BURBANK        MOSUNNY   57  52  83 E3        29.95R
ONTARIO        MOSUNNY   57  52  83 CALM      29.95S HAZE
RIVERSIDE      CLOUDY    58  52  80 CALM      29.96S
PALM SPRINGS     N/A    N/A N/A N/A MISG      29.86R
EL CENTRO NAS  SUNNY     68  48  48 S6        29.84S
IMPERIAL       SUNNY     68  48  48 S3        29.82R
BLYTHE         SUNNY     70  46  42 CALM      29.84R
NEEDLES        SUNNY     73  32  22 N5        29.84R
$$

NVZ020-UTZ003-271500-
SOUTHERN NEVADA-UTAH

CITY           SKY/WX    TMP DP  RH WIND       PRES   REMARKS
LAS VEGAS      MOSUNNY   68  35  29 CALM      29.86R
SALT LAKE CITY PTSUNNY   56  43  61 SE9       29.97S
$$

NMZ009-TXZ055-271500-
NEW MEXICO-WEST TEXAS

CITY           SKY/WX    TMP DP  RH WIND       PRES   REMARKS
ALBUQUERQUE    MOSUNNY   52  27  38 S7        29.97R
EL PASO        SUNNY     67  24  19 W13       29.94R
$$


........................KEY........................
SKY/WX - SKY CONDITION/WEATHER
TMP    - TEMPERATURE IN FAHRENHEIT
DP     - DEW POINT IN FAHRENHEIT
RH     - RELATIVE HUMIDITY IN PERCENT
WIND   - DIRECTION AND SPEED IN MILES PER HOUR (MPH)
VRB    - VARIABLE WIND DIRECTION
PRES   - MEAN SEA LEVEL PRESSURE IN INCHES OF MERCURY
         F - FALLING PRESSURE   R - RISING PRESSURE
         S - STEADY PRESSURE
VSB    - VISIBILITY IN MILES
HX     - HEAT INDEX IN FAHRENHEIT
WCI    - WIND CHILL INDEX IN FAHRENHEIT
TC     - TEMPERATURE IN CELSIUS WHICH IS ALSO KNOWN AS
         TEMPERATURE IN CENTIGRADE
AFB    - AIR FORCE BASE
         LUKE AFB IS LUKE AIR FORCE BASE
         DAVIS-MONTHAN IS DAVIS-MONTHAN AIR FORCE BASE
NAS    - NAVAL AIR STATION
         EL CENTRO NAS IS EL CENTRO NAVAL AIR STATION
N/A    - NOT AVAILABLE




USA.gov is the U.S. government's official web portal to all federal, state and local government web resources and services.